Hourly Data Report for May 10, 2003

TORONTO CITY
ONTARIO

43°40'00.000" N
79°24'00.000" W
112.50 m
6158355
71508
XTO

Download Data

Hourly Data (May 2003)
Hourly Data Report for May 10, 2003
TIME
LST
Temp Definition
°C
Dew Point Definition
°C
Rel Hum Definition
%
Precip. Amount Definition
mm

Wind Dir Definition
10's deg

Wind Spd Definition
km/h
Visibility Definition
km
Stn Press Definition
kPa
Hmdx Definition


Wind Chill Definition


Weather Definition


00:00 12.5 3.5 54   LegendMM LegendMM LegendMM 99.82     LegendNANA
01:00 12.4 4.1 57   LegendMM LegendMM LegendMM 99.77     LegendNANA
02:00 11.8 5.1 63   LegendMM LegendMM LegendMM 99.76     LegendNANA
03:00 12.1 4.8 61   LegendMM LegendMM LegendMM 99.77     LegendNANA
04:00 11.9 4.2 59   LegendMM LegendMM LegendMM 99.73     LegendNANA
05:00 11.4 4.5 62   LegendMM LegendMM LegendMM 99.71     LegendNANA
06:00 10.9 4.2 63   LegendMM LegendMM LegendMM 99.70     LegendNANA
07:00 11.8 4.2 60   LegendMM LegendMM LegendMM 99.59     LegendNANA
08:00 11.6 3.8 59   LegendMM LegendMM LegendMM 99.70     LegendNANA
09:00 10.0 3.4 64   LegendMM LegendMM LegendMM 99.68     LegendNANA
10:00 11.6 4.7 63   LegendMM LegendMM LegendMM 99.65     LegendNANA
11:00 13.3 5.3 58   LegendMM LegendMM LegendMM 99.68     LegendNANA
12:00 13.7 4.0 52   LegendMM LegendMM LegendMM 99.62     LegendNANA
13:00 14.8 4.0 48   LegendMM LegendMM LegendMM 99.51     LegendNANA
14:00 12.7 4.6 58   LegendMM LegendMM LegendMM 99.57     LegendNANA
15:00 13.9 5.8 58   LegendMM LegendMM LegendMM 99.44     LegendNANA
16:00 14.3 5.2 54   LegendMM LegendMM LegendMM 99.46     LegendNANA
17:00 14.9 4.0 48   LegendMM LegendMM LegendMM 99.39     LegendNANA
18:00 15.5 4.6 48   LegendMM LegendMM LegendMM 99.35     LegendNANA
19:00 15.2 4.3 48   LegendMM LegendMM LegendMM 99.32     LegendNANA
20:00 14.3 4.5 52   LegendMM LegendMM LegendMM 99.35     LegendNANA
21:00 12.8 3.7 54   LegendMM LegendMM LegendMM 99.35     LegendNANA
22:00 13.2 3.9 53   LegendMM LegendMM LegendMM 99.32     LegendNANA
23:00 14.8 3.9 48   LegendMM LegendMM LegendMM 99.30     LegendNANA

Notes on Data Quality.

Legend

  • E = Estimated
  • M = Missing
  • NA = Not Available*
  • [empty] = Indicates an unobserved value
Date modified: